This is the latest recevied weather packets stored in our database for station/object VE9LJW. If no packets are shown the sender has not sent any weather packets the latest 10 day(s).
| Time | Temp. | Humidity | Pressure | Rain* | Wind** | Luminosity | Snow |
|---|---|---|---|---|---|---|---|
| 1778066031 | 12.78° C | 99% | 1009.1 hPa | 1.27 mm | - | 51 W/m² | - |
| 1778065728 | 12.78° C | 99% | 1008.8 hPa | 0.51 mm | - | 23 W/m² | - |
| 1778065425 | 12.78° C | 99% | 1008.9 hPa | 0.51 mm | - | 15 W/m² | - |
| 1778065121 | 12.78° C | 98% | 1009.6 hPa | 0.51 mm | - | 24 W/m² | - |
| 1778064818 | 12.78° C | 98% | 1009.2 hPa | 0 mm | - | 22 W/m² | - |
| 1778064516 | 12.78° C | 99% | 1009.1 hPa | 0 mm | - | 43 W/m² | - |
| 1778064213 | 12.78° C | 99% | 1008.8 hPa | 0 mm | - | 48 W/m² | - |
| 1778063911 | 12.78° C | 99% | 1009.2 hPa | 0 mm | - | 56 W/m² | - |
| 1778063608 | 12.78° C | 99% | 1009.2 hPa | 0 mm | - | 54 W/m² | - |
| 1778063305 | 12.22° C | 99% | 1009.1 hPa | 0 mm | - | 49 W/m² | - |
| 1778063003 | 12.22° C | 99% | 1008.8 hPa | 0 mm | - | 44 W/m² | - |
| 1778062700 | 12.22° C | 99% | 1009 hPa | 0 mm | - | 31 W/m² | - |
| 1778062396 | 12.22° C | 99% | 1008.9 hPa | 0 mm | - | 24 W/m² | - |
| 1778062094 | 12.22° C | 99% | 1009.2 hPa | 0 mm | - | 22 W/m² | - |
| 1778061792 | 12.22° C | 99% | 1008.6 hPa | 0 mm | - | 16 W/m² | - |
| 1778061490 | 12.22° C | 99% | 1008.9 hPa | 0 mm | - | 15 W/m² | - |
| 1778061187 | 12.22° C | 99% | 1008.6 hPa | 0 mm | - | 10 W/m² | - |
| 1778060884 | 12.22° C | 99% | 1008.5 hPa | 0 mm | - | 10 W/m² | - |
| 1778060582 | 12.22° C | 99% | 1008.6 hPa | 0 mm | - | 4 W/m² | - |
| 1778060280 | 12.22° C | 99% | 1008.4 hPa | 0 mm | - | 4 W/m² | - |
| 1778059977 | 12.22° C | 99% | 1008.7 hPa | 0 mm | - | 2 W/m² | - |
| 1778059675 | 12.22° C | 99% | 1008.3 hPa | 0 mm | - | 2 W/m² | - |
| 1778059372 | 12.22° C | 98% | 1008.2 hPa | 0.51 mm | - | 0 W/m² | - |
| 1778059069 | 12.22° C | 98% | 1008.2 hPa | 0 mm | - | 0 W/m² | - |
| 1778058767 | 12.22° C | 98% | 1008.3 hPa | 0 mm | - | 0 W/m² | - |
* Rain latest hour (hover to see other rain measurements)
** Current wind speed in m/s (hover to see current wind gust speed)